Temperature
6 6 6 6 6 5 5 5 5 4 4 5 5 6 5 5 6 6 6 6 5 5 5 5 5 5 4 4 4 4 4 3 3 3 3 3 3 3
5 5 5 5 5 5 5 5 5 4 4 4 5 5 5 5 5 5 5 5 5 5 4 4 4 4 4 4 3 3 3 3 3 3 2 2 2 2
4 4 5 4 4 4 4 4 4 4 4 4 4 4 4 4 4 4 4 4 4 4 4 3 3 3 3 3 3 3 3 2 2 2 2 2 2 2
4 4 4 4 4 4 4 4 4 4 4 3 4 4 4 4 4 4 4 4 4 4 3 3 3 3 3 3 2 2 2 2 2 2 1 1 1 1
3 3 3 3 3 3 3 3 3 3 3 3 3 3 3 3 3 3 3 3 3 3 3 3 2 2 2 2 2 2 2 1 1 1 1 1 1 1
3 3 3 3 3 3 3 3 3 3 2 2 2 2 2 2 2 2 2 2 2 2 2 2 2 2 2 2 1 1 1 1 1 1 1 1 0 0
2 2 2 2 3 2 2 2 2 2 2 2 2 2 1 1 1 1 1 2 2 2 2 2 1 1 1 1 1 1 1 1 0 0 0 0 0 0
2 2 2 2 2 2 2 2 2 2 2 2 2 1 1 1 1 1 1 1 1 1 1 1 1 1 1 1 1 0 0 0 0 -0 -0 -0 -0 -0
1 2 2 2 2 2 2 2 2 2 1 1 1 1 1 1 1 0 0 0 0 0 0 0 1 1 0 0 0 -0 -0 -0 -0 -1 -1 -1 -1 -1
1 1 1 1 1 1 1 1 1 1 1 1 1 1 1 0 0 0 -0 -0 -0 -0 -0 -0 -0 -0 -0 -0 -1 -1 -1 -1 -1 -1 -1 -1 -1 -1
0 1 0 1 1 1 1 1 1 1 1 0 0 0 0 0 -0 -0 -1 -1 -1 -1 -1 -1 -1 -1 -1 -1 -1 -1 -1 -1 -1 -1 -1 -1 -2 -2
0 -0 -0 0 0 0 0 -0 -0 -0 -0 -0 -0 -0 -0 -0 -1 -1 -1 -1 -2 -2 -2 -2 -2 -2 -2 -2 -2 -2 -2 -2 -2 -2 -2 -2 -2 -2
-0 -0 -0 -0 -0 -0 -0 -1 -1 -1 -1 -1 -1 -1 -1 -1 -1 -1 -1 -1 -2 -2 -2 -2 -2 -3 -3 -3 -2 -2 -3 -3 -3 -3 -3 -2 -2 -2
-1 -1 -1 -1 -1 -1 -1 -1 -1 -1 -1 -1 -2 -2 -2 -2 -2 -2 -2 -2 -2 -2 -2 -2 -3 -3 -3 -3 -3 -3 -3 -3 -3 -3 -3 -3 -3 -3
-1 -2 -2 -2 -2 -2 -2 -2 -2 -2 -2 -2 -2 -2 -2 -2 -2 -2 -2 -2 -2 -3 -3 -3 -3 -3 -3 -3 -4 -4 -4 -4 -4 -4 -4 -3 -3 -3
-2 -2 -2 -2 -2 -2 -2 -2 -2 -2 -2 -3 -3 -3 -3 -3 -3 -3 -3 -3 -3 -3 -3 -3 -3 -3 -4 -4 -4 -4 -4 -4 -4 -4 -4 -4 -4 -4
-3 -3 -3 -3 -3 -3 -3 -3 -3 -3 -3 -3 -3 -3 -3 -3 -3 -3 -3 -3 -4 -4 -4 -4 -4 -4 -4 -4 -4 -4 -5 -5 -5 -5 -5 -4 -4 -4
-3 -3 -3 -3 -3 -3 -3 -3 -3 -3 -4 -4 -4 -4 -4 -4 -4 -4 -4 -4 -4 -4 -4 -4 -4 -4 -5 -5 -5 -5 -5 -5 -5 -5 -5 -5 -5 -4
-3 -4 -4 -4 -4 -4 -4 -4 -4 -4 -4 -4 -4 -4 -4 -4 -4 -4 -4 -4 -4 -5 -5 -5 -5 -5 -5 -6 -5 -5 -6 -6 -6 -5 -6 -6 -5 -5
-4 -4 -4 -4 -4 -4 -4 -4 -5 -5 -5 -5 -4 -4 -4 -4 -5 -5 -5 -5 -5 -5 -5 -5 -5 -6 -6 -6 -6 -6 -6 -6 -6 -6 -6 -6 -6 -5
-4 -4 -5 -5 -5 -5 -5 -5 -5 -5 -5 -5 -5 -5 -5 -5 -5 -5 -5 -5 -5 -6 -6 -6 -6 -6 -6 -6 -6 -6 -6 -6 -6 -6 -6 -6 -6 -6
-5 -5 -5 -5 -5 -5 -5 -5 -5 -5 -5 -5 -5 -5 -5 -5 -5 -5 -6 -6 -6 -6 -6 -6 -6 -6 -6 -6 -6 -6 -6 -6 -6 -6 -6 -7 -7 -7
-5 -5 -5 -5 -5 -5 -6 -6 -6 -6 -6 -6 -6 -6 -6 -6 -6 -6 -6 -6 -6 -6 -6 -7 -7 -7 -7 -7 -6 -6 -6 -6 -6 -6 -6 -6 -6 -6
Wind_Speed
5 5 4 4 4 4 4 4 4 5 6 4 3 3 4 5 7 7 7 9 10 9 9 9 9 9 9 9 9 8 9 9 9 10 10 11 11 11
4 4 4 4 4 4 4 4 4 5 6 4 4 4 3 4 6 5 7 8 9 9 9 9 9 9 9 9 9 8 9 9 10 11 11 11 11 11
4 5 5 4 4 4 4 4 4 4 6 5 3 2 3 4 4 4 5 5 6 8 9 9 9 9 9 9 9 9 9 9 10 11 11 12 12 11
6 5 6 4 5 4 4 5 4 4 4 6 3 3 4 4 3 3 3 4 4 7 8 9 9 9 9 9 9 9 9 9 10 10 11 12 12 12
6 6 6 5 6 5 5 5 4 4 3 4 4 3 3 2 2 3 3 2 3 5 6 7 7 8 9 9 9 9 9 9 10 10 11 11 11 12
6 6 6 7 7 7 6 6 5 4 4 4 4 3 2 2 1 2 3 2 3 3 4 5 6 7 8 9 9 9 9 9 10 10 10 11 11 11
5 6 7 8 9 8 6 5 5 5 4 4 4 3 3 2 3 2 3 2 3 2 2 3 3 3 5 7 8 9 9 10 10 10 10 10 10 11
6 6 6 7 8 9 10 9 7 7 6 5 5 5 6 4 3 3 3 2 3 2 2 3 2 3 4 5 8 9 9 9 9 9 9 9 10 10
5 5 5 6 7 6 8 8 8 10 9 7 7 7 6 6 5 4 4 3 4 3 2 3 2 4 4 6 8 8 7 8 8 9 9 9 9 10
5 5 5 5 5 5 5 5 6 6 7 7 7 6 5 5 6 5 4 2 2 2 1 3 2 3 4 5 8 7 7 7 8 8 8 9 9 9
5 4 5 5 6 6 5 5 5 4 4 4 4 4 5 5 4 3 2 2 2 2 1 1 2 3 3 4 5 7 7 8 7 8 9 9 8 8
3 4 5 5 5 5 4 4 5 4 2 2 2 3 3 4 5 4 4 4 2 2 2 1 1 1 2 2 3 4 5 6 7 8 8 8 8 5
3 3 4 5 5 5 4 4 5 3 2 3 2 2 2 2 2 2 3 4 3 3 3 2 1 1 1 2 3 3 3 4 5 5 7 8 7 5
3 3 3 5 5 4 3 3 2 1 1 2 2 2 2 2 1 1 1 2 3 4 4 3 2 2 2 2 3 3 3 4 3 3 4 7 7 6
3 4 4 4 3 2 3 2 2 1 2 2 3 3 2 2 1 1 1 1 1 1 2 3 2 2 2 3 3 3 3 3 3 3 4 4 4 3
2 3 3 2 2 1 1 2 1 2 2 3 2 1 1 1 1 1 0 0 1 1 1 1 1 2 2 3 3 3 3 2 3 3 3 4 3 3
1 0 0 0 1 1 1 1 1 1 1 1 2 1 1 1 1 1 0 0 0 1 1 2 3 2 2 2 2 3 3 3 3 3 3 4 3 3
1 1 1 2 2 2 2 1 1 1 1 1 2 2 2 2 1 0 0 1 1 1 1 0 1 2 2 2 2 2 2 2 3 3 2 3 4 4
1 2 2 2 2 2 2 2 1 1 1 2 2 2 2 1 1 1 1 1 1 1 1 1 0 0 1 3 3 2 2 3 3 3 3 3 4 5
1 2 2 2 2 2 2 1 1 1 1 1 1 2 2 2 2 2 2 1 1 1 1 1 1 1 2 2 2 3 4 2 2 3 3 3 4 6
1 2 2 2 2 1 1 1 1 1 1 1 1 1 2 2 1 1 2 2 1 1 1 2 2 2 1 1 1 2 3 4 4 3 3 3 3 3
1 1 1 2 2 2 1 1 1 1 1 1 1 1 1 1 2 2 2 1 1 1 1 1 1 1 1 0 1 2 3 4 5 5 4 3 2 1
2 2 2 2 2 2 2 2 2 2 1 1 1 1 1 1 1 1 1 1 1 1 0 1 1 1 1 0 0 1 3 4 3 4 4 5 5 6
Wind_Direction
244 245 248 250 238 237 237 228 227 253 262 254 251 249 244 245 242 232 232 238 241 244 246 247 251 257 262 266 269 274 281 284 284 285 285 286 290 294
251 245 249 254 250 243 240 240 237 238 255 249 250 256 249 254 254 241 233 240 240 240 245 248 252 257 260 262 265 270 275 280 283 284 284 285 286 291
256 249 250 250 254 254 250 244 243 240 254 272 268 260 255 252 262 249 243 238 238 242 248 253 255 255 258 261 265 267 270 276 280 282 285 284 284 286
251 248 251 249 248 251 249 246 243 239 244 265 273 269 260 252 245 248 258 250 243 246 247 256 258 257 258 259 262 267 272 275 278 279 280 282 285 283
248 247 249 244 248 252 251 245 242 243 241 248 260 271 271 266 273 275 273 266 261 251 249 253 258 261 261 259 262 265 269 272 274 275 277 278 281 284
251 246 245 243 244 246 249 244 238 234 235 240 249 254 256 260 247 258 274 279 278 273 264 266 267 266 261 262 261 263 266 269 271 273 274 275 277 281
261 256 250 251 251 248 250 242 232 230 231 236 240 246 239 237 239 248 246 273 277 244 268 278 278 272 268 266 263 264 268 271 270 271 272 272 273 276
262 262 260 255 258 257 255 249 238 232 228 230 238 236 240 236 238 237 234 245 268 231 238 270 261 264 275 271 268 272 274 272 271 273 274 272 271 274
254 258 264 264 263 255 256 253 250 248 239 230 231 234 234 226 218 226 229 240 256 241 216 254 258 267 285 274 275 274 279 280 279 276 275 276 274 274
251 249 253 261 264 262 252 251 251 250 245 240 234 234 231 220 216 221 225 248 274 256 209 243 264 274 289 280 269 267 279 289 285 280 278 279 279 276
258 257 258 255 266 265 256 251 253 262 262 246 241 233 223 217 195 173 181 198 254 260 231 230 261 297 290 278 272 276 285 290 293 294 291 285 281 278
264 263 266 272 268 265 242 233 238 240 225 232 238 237 220 203 194 192 193 201 224 248 226 209 223 305 295 281 290 290 287 288 294 300 302 295 284 282
258 266 268 273 272 270 257 238 240 232 209 207 217 219 214 213 209 207 201 201 213 244 217 194 232 260 244 281 292 292 296 306 302 298 301 301 296 290
254 262 267 271 272 273 270 258 235 219 186 193 201 212 213 223 232 218 223 234 236 236 216 199 209 221 242 279 281 292 301 301 305 305 306 303 305 303
254 263 273 271 265 261 260 236 217 208 191 200 213 225 226 211 177 144 82 55 16 315 217 212 206 218 224 245 260 280 298 296 291 305 310 310 311 313
260 264 271 274 275 249 222 238 243 225 204 207 219 226 194 178 175 157 147 53 26 358 15 35 228 214 247 246 250 267 274 268 290 307 311 314 311 298
233 243 140 232 246 240 226 225 221 212 217 200 185 186 195 188 184 149 166 179 210 267 329 0 10 344 284 257 256 253 266 290 289 305 318 316 306 286
178 173 208 227 229 230 230 252 254 232 220 200 189 187 195 190 180 178 161 184 215 233 259 270 25 10 0 346 282 254 278 291 303 311 317 309 308 305
193 194 219 236 245 239 228 232 256 250 225 197 186 192 191 181 172 187 201 217 241 245 244 221 220 39 327 315 312 297 289 304 312 314 309 300 296 299
212 207 222 233 235 232 227 226 229 234 212 200 190 194 189 181 184 193 199 207 223 242 279 277 258 245 245 256 273 299 303 294 296 302 311 311 303 302
242 229 224 225 229 228 223 215 212 218 221 211 202 199 190 178 186 198 197 196 194 199 244 289 295 335 4 35 342 319 319 317 309 298 300 305 312 318
243 234 231 223 217 211 211 208 208 213 215 215 198 195 190 180 182 186 188 187 195 207 268 316 351 9 17 341 289 301 315 328 333 328 306 284 269 271
247 227 222 218 211 206 202 202 206 218 221 226 200 180 169 174 180 180 181 181 169 163 135 19 2 8 8 319 269 313 323 333 342 347 330 319 310 302
Height
1486 1486 1486 1487 1488 1488 1488 1488 1488 1485 1484 1485 1486 1486 1487 1487 1486 1486 1485 1485 1485 1484 1484 1483 1483 1483 1483 1483 1482 1481 1481 1480 1479 1478 1477 1477 1476 1475
1481 1481 1481 1482 1482 1483 1483 1483 1483 1482 1480 1479 1480 1481 1481 1481 1481 1480 1480 1479 1479 1479 1478 1478 1478 1478 1477 1477 1476 1476 1475 1475 1474 1473 1472 1471 1471 1470
1475 1475 1475 1476 1476 1477 1477 1477 1477 1477 1475 1474 1475 1476 1475 1475 1475 1475 1474 1474 1473 1473 1473 1472 1472 1472 1472 1471 1471 1470 1469 1469 1468 1467 1466 1466 1465 1464
1469 1470 1470 1471 1471 1471 1472 1471 1472 1471 1471 1469 1469 1469 1469 1469 1469 1469 1469 1468 1467 1467 1467 1467 1466 1466 1466 1465 1465 1464 1464 1463 1462 1461 1461 1460 1459 1459
1464 1464 1464 1465 1465 1465 1466 1466 1466 1466 1466 1465 1463 1464 1464 1464 1464 1463 1463 1463 1462 1462 1461 1461 1460 1460 1460 1459 1459 1458 1457 1456 1456 1455 1455 1454 1453 1452
1459 1459 1459 1459 1459 1459 1460 1460 1460 1460 1460 1459 1459 1459 1459 1459 1458 1458 1457 1457 1456 1456 1456 1455 1455 1454 1454 1454 1453 1452 1451 1450 1449 1449 1448 1447 1447 1446
1453 1453 1453 1453 1453 1454 1454 1454 1454 1454 1454 1454 1453 1453 1453 1453 1453 1453 1451 1450 1450 1450 1450 1450 1449 1448 1448 1448 1447 1445 1444 1443 1443 1442 1441 1441 1440 1440
1447 1447 1447 1447 1448 1448 1448 1448 1449 1449 1448 1448 1447 1447 1447 1448 1448 1448 1447 1445 1444 1445 1444 1444 1444 1443 1442 1442 1441 1440 1438 1437 1436 1435 1434 1434 1434 1433
1442 1442 1442 1442 1442 1441 1441 1442 1442 1442 1443 1443 1442 1441 1442 1442 1442 1442 1441 1440 1440 1439 1439 1437 1438 1437 1437 1436 1435 1434 1432 1431 1430 1429 1428 1428 1428 1427
1437 1436 1436 1436 1436 1436 1435 1435 1435 1435 1436 1436 1436 1436 1437 1437 1437 1437 1437 1436 1436 1435 1435 1433 1432 1431 1431 1431 1430 1429 1427 1425 1424 1423 1423 1422 1422 1421
1431 1431 1431 1431 1431 1430 1430 1429 1429 1429 1430 1430 1431 1431 1432 1432 1432 1432 1431 1431 1429 1429 1430 1428 1427 1426 1426 1425 1425 1424 1422 1421 1419 1418 1417 1417 1416 1416
1426 1426 1426 1425 1425 1425 1424 1423 1423 1423 1424 1424 1425 1426 1426 1426 1427 1427 1426 1426 1425 1425 1425 1424 1423 1422 1421 1420 1420 1419 1418 1416 1415 1414 1412 1411 1411 1410
1421 1420 1421 1421 1420 1420 1419 1419 1418 1419 1419 1419 1420 1420 1421 1421 1421 1422 1422 1422 1422 1421 1421 1420 1419 1419 1418 1416 1414 1414 1413 1412 1410 1409 1408 1407 1405 1405
1416 1416 1416 1416 1416 1415 1415 1414 1414 1415 1415 1415 1415 1415 1416 1416 1417 1417 1418 1418 1418 1417 1417 1416 1415 1415 1414 1412 1410 1409 1409 1408 1406 1404 1403 1402 1401 1400
1412 1412 1412 1412 1411 1410 1410 1410 1410 1410 1410 1410 1410 1411 1412 1413 1413 1413 1413 1413 1413 1413 1413 1413 1412 1411 1411 1409 1407 1405 1404 1403 1402 1400 1398 1397 1396 1395
1408 1408 1408 1407 1407 1406 1406 1406 1406 1406 1406 1406 1407 1408 1409 1409 1409 1409 1409 1409 1409 1408 1409 1409 1408 1408 1407 1405 1404 1402 1401 1400 1398 1396 1395 1393 1392 1392
1404 1403 1403 1403 1402 1402 1402 1402 1403 1403 1403 1403 1404 1404 1405 1405 1405 1406 1406 1406 1405 1405 1404 1405 1405 1404 1404 1403 1400 1399 1398 1397 1395 1394 1392 1390 1389 1389
1401 1399 1399 1399 1398 1398 1398 1398 1399 1400 1400 1400 1400 1401 1401 1401 1402 1402 1403 1402 1402 1402 1401 1401 1400 1400 1400 1399 1399 1396 1395 1394 1392 1391 1390 1388 1386 1386
1397 1396 1396 1396 1396 1395 1395 1395 1396 1396 1397 1397 1397 1398 1399 1399 1399 1399 1400 1399 1399 1399 1398 1398 1397 1397 1396 1395 1394 1395 1393 1391 1390 1389 1388 1386 1384 1384
1394 1393 1393 1393 1393 1393 1393 1393 1393 1393 1394 1394 1395 1395 1396 1396 1396 1396 1397 1397 1396 1396 1395 1395 1395 1395 1394 1394 1392 1391 1391 1390 1388 1387 1386 1384 1383 1382
1391 1391 1391 1391 1391 1391 1391 1391 1391 1391 1391 1392 1392 1392 1393 1393 1393 1394 1394 1394 1394 1394 1393 1393 1393 1393 1393 1392 1390 1388 1388 1388 1387 1386 1384 1382 1381 1379
1388 1388 1389 1389 1389 1389 1389 1388 1388 1388 1389 1389 1389 1390 1390 1391 1391 1391 1391 1391 1391 1392 1391 1391 1391 1391 1390 1390 1388 1387 1386 1386 1385 1384 1383 1382 1380 1379
1387 1386 1386 1386 1387 1387 1386 1386 1386 1386 1387 1387 1387 1388 1388 1389 1389 1389 1390 1390 1389 1389 1389 1389 1389 1389 1388 1388 1387 1386 1385 1383 1382 1382 1381 1381 1380 1379